User: anonymous   Login
Location: Caltech
(34.1382°N, 118.1253°W)
Time: 15:01:46
(UTC-07:00)
Language:

NOSS 3-1 (C) - Orbit

View from above orbital plane
View from above orbital plane
View from above satellite
View from above satellite

Ground track
Ground track

The orbit data is extracted from the following two-line orbital elements,

1 26907U 01040C   17228.07556474 0.00000000  00000-0  00000-0 0    00
2 26907  63.4088 235.6961 0374000 359.2195   0.7805 13.41267540    08
Epoch (UTC): 16 August 2017 01:48:48
Eccentricity: 0.0374000
inclination: 63.4088°
perigee height: 825 km
apogee height: 1384 km
right ascension of ascending node: 235.6961°
argument of perigee: 359.2195°
revolutions per day: 13.41267540
mean anomaly at epoch: 0.7805°
orbit number at epoch: 0

The dashed part of the orbit path shows where the satellite is in the earth's shadow,  

DLR